Ridgedale, MO

9:56 AM CST on December 09, 2016 (GMT -0600)
Branson

Weather History for KBBG - December, 2012

Change the Weather History Date:

Wednesday, December 26, 2012

  Actual Average (KHRO) Record (KHRO)
Temperature  
Mean Temperature 26 °F -  
Max Temperature 32 °F 44 °F 72 °F (1971)
Min Temperature 21 °F 25 °F -1 °F (1983)
Degree Days  
Heating Degree Days 38    
Moisture  
Dew Point 17 °F    
Average Humidity 72    
Maximum Humidity 80    
Minimum Humidity 55    
Precipitation  
Precipitation 0.00 in - - ()
Sea Level Pressure  
Sea Level Pressure 30.07 in    
Wind  
Wind Speed 13 mph (NNW)    
Max Wind Speed 20 mph    
Max Gust Speed 28 mph    
Visibility 10 miles    
Events      
Averages and records for this station are not official NWS values.
T = Trace of Precipitation, MM = Missing Value Source: NWS Daily Summary

Daily Weather History Graph

Daily Weather History Graph

Search for Another Location

Airport or City:

Trip Planner

Search our weather history database for the weather conditions in past years. The results will help you decide how hot, cold, wet, or windy it might be!

Date:

Astronomy

Dec. 26, 2012 Rise Set
Actual Time 7:23 AM CST 5:04 PM CST
Civil Twilight 6:54 AM CST 5:32 PM CST
Nautical Twilight 6:22 AM CST 6:05 PM CST
Astronomical Twilight 5:50 AM CST 6:36 PM CST
Moon 3:57 PM CST (12/26) 5:48 AM CST (12/26)
Length of Visible Light 10h 38m
Length of Day
9h 40m
Waxing Gibbous, 97% of the Moon is Illuminated
Dec 26
Waxing Gibbous
Dec 28
Full
Jan 4
Last Quarter
Jan 11
New
Jan 18
First Quarter

Hourly Weather History & Observations

Time (CST) Temp. Windchill Dew Point Humidity Pressure Visibility Wind Dir Wind Speed Gust Speed Precip Events Conditions
12:15 AM 26.6 °F 13.8 °F 19.4 °F 74% 29.95 in 10.0 mi NNW 17.3 mph 25.3 mph N/A   Overcast
12:35 AM 24.8 °F 11.1 °F 19.4 °F 80% 29.95 in 10.0 mi NNW 18.4 mph 27.6 mph N/A   Overcast
12:55 AM 24.8 °F 11.5 °F 19.4 °F 80% 29.95 in 10.0 mi NNW 17.3 mph 23.0 mph N/A   Overcast
1:15 AM 24.8 °F 11.9 °F 19.4 °F 80% 29.96 in 10.0 mi NNW 16.1 mph 23.0 mph N/A   Overcast
1:35 AM 24.8 °F 10.7 °F 17.6 °F 74% 29.96 in 10.0 mi NNW 19.6 mph 25.3 mph N/A   Overcast
1:55 AM 24.8 °F 11.1 °F 17.6 °F 74% 29.97 in 10.0 mi NNW 18.4 mph 23.0 mph N/A   Overcast
2:15 AM 24.8 °F 10.7 °F 17.6 °F 74% 29.97 in 10.0 mi NNW 19.6 mph 25.3 mph N/A   Overcast
2:35 AM 24.8 °F 11.1 °F 17.6 °F 74% 29.98 in 10.0 mi NNW 18.4 mph 25.3 mph N/A   Overcast
2:55 AM 24.8 °F 11.5 °F 17.6 °F 74% 29.99 in 10.0 mi NNW 17.3 mph 24.2 mph N/A   Overcast
3:15 AM 24.8 °F 11.5 °F 17.6 °F 74% 29.99 in 10.0 mi NW 17.3 mph 24.2 mph N/A   Overcast
3:35 AM 24.8 °F 14.0 °F 17.6 °F 74% 29.99 in 10.0 mi NW 11.5 mph 20.7 mph N/A   Overcast
3:55 AM 24.8 °F 11.1 °F 17.6 °F 74% 29.99 in 10.0 mi NW 18.4 mph - N/A   Overcast
4:15 AM 23.0 °F 10.1 °F 15.8 °F 74% 30.00 in 10.0 mi NW 15.0 mph 20.7 mph N/A   Overcast
4:35 AM 23.0 °F 10.1 °F 15.8 °F 74% 29.99 in 10.0 mi NW 15.0 mph 20.7 mph N/A   Overcast
4:55 AM 23.0 °F 10.6 °F 15.8 °F 74% 30.00 in 10.0 mi NW 13.8 mph 24.2 mph N/A   Overcast
5:35 AM 23.0 °F 10.1 °F 15.8 °F 74% 30.02 in 10.0 mi NW 15.0 mph 19.6 mph N/A   Overcast
6:45 AM 21.2 °F 8.3 °F 15.8 °F 80% 30.04 in 10.0 mi NW 13.8 mph 20.7 mph N/A   Overcast
7:55 AM 21.2 °F 10.1 °F 15.8 °F 80% 30.08 in 10.0 mi NW 10.4 mph - N/A   Overcast
8:45 AM 23.0 °F 13.1 °F 15.8 °F 74% 30.10 in 10.0 mi NW 9.2 mph - N/A   Overcast
9:50 AM 24.8 °F 15.3 °F 15.8 °F 69% 30.10 in 10.0 mi NW 9.2 mph - N/A   Scattered Clouds
10:55 AM 28.4 °F 18.5 °F 17.6 °F 64% 30.12 in 10.0 mi WNW 11.5 mph 17.3 mph N/A   Scattered Clouds
11:52 AM 32.0 °F 24.2 °F 17.6 °F 55% 30.10 in 10.0 mi North 9.2 mph - N/A   Partly Cloudy
12:55 PM 32.0 °F 23.0 °F 17.6 °F 55% 30.10 in 10.0 mi NW 11.5 mph 17.3 mph N/A   Scattered Clouds
1:50 PM 32.0 °F 25.6 °F 17.6 °F 55% 30.09 in 10.0 mi WNW 6.9 mph - N/A   Scattered Clouds
2:55 PM 32.0 °F 22.5 °F 17.6 °F 55% 30.11 in 10.0 mi NW 12.7 mph - N/A   Scattered Clouds
3:50 PM 32.0 °F 23.6 °F 17.6 °F 55% 30.11 in 10.0 mi NNW 10.4 mph - N/A   Scattered Clouds
4:50 PM 28.4 °F 22.2 °F 17.6 °F 64% 30.11 in 10.0 mi WNW 5.8 mph - N/A   Scattered Clouds
5:50 PM 26.6 °F 18.2 °F 17.6 °F 69% 30.13 in 10.0 mi NW 8.1 mph - N/A   Clear
6:45 PM 26.6 °F 18.2 °F 17.6 °F 69% 30.15 in 10.0 mi NW 8.1 mph - N/A   Clear
7:52 PM 24.8 °F 17.9 °F 17.6 °F 74% 30.17 in 10.0 mi NNW 5.8 mph - N/A   Clear
8:15 PM 24.8 °F 17.9 °F 17.6 °F 74% 30.16 in 10.0 mi North 5.8 mph - N/A   Clear
8:35 PM 24.8 °F 17.9 °F 17.6 °F 74% 30.15 in 10.0 mi NNW 5.8 mph - N/A   Clear
8:50 PM 24.8 °F 19.1 °F 17.6 °F 74% 30.14 in 10.0 mi North 4.6 mph - N/A   Clear
8:55 PM 24.8 °F 19.1 °F 17.6 °F 74% 30.14 in 10.0 mi NE 4.6 mph - N/A   Clear
9:15 PM 24.8 °F 20.5 °F 17.6 °F 74% 30.14 in 10.0 mi NNE 3.5 mph - N/A   Clear
9:35 PM 24.8 °F - 17.6 °F 74% 30.13 in 10.0 mi Calm Calm - N/A   Clear
9:55 PM 24.8 °F 20.5 °F 17.6 °F 74% 30.13 in 10.0 mi ENE 3.5 mph - N/A   Clear
10:15 PM 24.8 °F - 17.6 °F 74% 30.14 in 10.0 mi Calm Calm - N/A   Clear
10:35 PM 23.0 °F - 17.6 °F 80% 30.14 in 10.0 mi Calm Calm - N/A   Clear
10:55 PM 23.0 °F - 17.6 °F 80% 30.13 in 10.0 mi Calm Calm - N/A   Clear
11:15 PM 23.0 °F - 17.6 °F 80% 30.13 in 10.0 mi Calm Calm - N/A   Clear
11:35 PM 23.0 °F - 17.6 °F 80% 30.13 in 10.0 mi Calm Calm - N/A   Clear
11:55 PM 23.0 °F - 17.6 °F 80% 30.13 in 10.0 mi Calm Calm - N/A   Clear